Location: Solstice Park, West Seattle
(47.5363°N, 122.3905°W)
Time: 08:12:15
(UTC-07:00)

ISS - Pass Details

Date: 18 May 2021
Orbit: 417 x 422 km, 51.6° (Epoch: 18 June)

Event Time Altitude Azimuth Distance (km) Brightness Sun altitude
Rises 23:10:56 0° 274° (W) 2,365 0.5 -17.8°
Reaches altitude 10° 23:13:07 10° 282° (WNW) 1,502 -0.4 -18.0°
Maximum altitude 23:16:20 41° 354° (N) 630 -2.4 -18.3°
Drops below altitude 10° 23:19:33 10° 66° (ENE) 1,507 -1.0 -18.5°
Enters shadow 23:20:40 - 71° (ENE) 1,943 -0.5 -18.6°
